ZIYUAN 3-2 (ZY 3-2) (41556 NORAD) Tracking and Keplerian Element Data

This shows tracking and keplerian element data for the satellite.

Feedback or suggestion? Click here.




ElementValue
Catalog41556
NameZIYUAN 3-2 (ZY 3-2)
Epoch Orbit13685
Epoch Day320.23741132
Epoch Year2018
RAAN35.9415
Inclination97.4189
Eccentricity8.66E-05
Argument of Perigee104.1142
Mean Anonmoly331.6113
Mean Motion15.21343838
Decay Rate6.73E-06
L11 41556U 16033A 18320.23741132 .00000673 00000-0 33095-4 0 9991
L22 41556 97.4189 35.9415 0000866 104.1142 331.6113 15.21343838136850

Live tracking and technical data element details for ZIYUAN 3-2 (ZY 3-2) (NORAD 41556). ZIYUAN 3-2 (ZY 3-2) can be tracked NOW for your location showing map with azimuth and elevation plus other details from your city location.

Track the satellite on the map from your city or location and see movement details for azimuth, elevation, latitude, longitude, range, height, and movement on the map or in text.







IsCatalogInMostPopularTable: catalog: 41556, numindb: 139
Update: records affected: 1



GetName: 41556 ZIYUAN 3-2 (ZY 3-2)

Hit Count: updated at: Fri, 16 Nov 2018 11:38:05 GMT